Dickinson, ND

4:37 PM MST on February 24, 2017 (GMT -0700)
Dickinson Municipal

Weather History for KDIK - April, 2014

Change the Weather History Date:

Thursday, April 10, 2014

  Actual Average Record
Temperature  
Mean Temperature 44 °F 40 °F  
Max Temperature 61 °F 53 °F 80 °F (1971)
Min Temperature 27 °F 27 °F 9 °F (1997)
Degree Days  
Heating Degree Days 21 25  
Month to date heating degree days 321 267  
Since 1 July heating degree days 8159 7647  
Cooling Degree Days 0 0  
Month to date cooling degree days 0 0  
Year to date cooling degree days 0 0  
Moisture  
Dew Point 23 °F    
Average Humidity 49    
Maximum Humidity 75    
Minimum Humidity 22    
Precipitation  
Precipitation 0.00 in 0.04 in 1.04 in (1965)
Month to date precipitation 0.03 0.38  
Year to date precipitation 0.70 1.70  
Sea Level Pressure  
Sea Level Pressure 29.89 in    
Wind  
Wind Speed 10 mph (West)    
Max Wind Speed 28 mph    
Max Gust Speed 35 mph    
Visibility 10 miles    
Events      
T = Trace of Precipitation, MM = Missing Value Source: NWS Daily Summary

Daily Weather History Graph

Daily Weather History Graph

Search for Another Location

Airport or City:

Trip Planner

Search our weather history database for the weather conditions in past years. The results will help you decide how hot, cold, wet, or windy it might be!

Date:

Astronomy

Apr. 10, 2014 Rise Set
Actual Time 6:12 AM MDT 7:32 PM MDT
Civil Twilight 5:41 AM MDT 8:04 PM MDT
Nautical Twilight 5:03 AM MDT 8:42 PM MDT
Astronomical Twilight 4:23 AM MDT 9:22 PM MDT
Moon 3:03 PM MDT (4/10) 3:53 AM MDT (4/10)
Length of Visible Light 14h 22m
Length of Day
13h 19m
Waxing Gibbous, 80% of the Moon is Illuminated
Apr 10
Waxing Gibbous
Apr 15
Full
Apr 22
Last Quarter
Apr 29
New
May 6
First Quarter

Hourly Weather History & Observations

Time (MDT) Temp. Windchill Dew Point Humidity Pressure Visibility Wind Dir Wind Speed Gust Speed Precip Events Conditions
12:56 AM 30.9 °F 22.8 °F 21.9 °F 69% 29.84 in 10.0 mi West 9.2 mph - N/A   Clear
1:56 AM 30.0 °F 21.1 °F 23.0 °F 75% 29.86 in 10.0 mi West 10.4 mph - N/A   Clear
2:56 AM 28.9 °F 21.1 °F 21.0 °F 72% 29.89 in 10.0 mi West 8.1 mph - N/A   Clear
3:56 AM 28.9 °F 20.4 °F 21.0 °F 72% 29.90 in 10.0 mi West 9.2 mph - N/A   Clear
4:56 AM 30.0 °F 21.7 °F 21.0 °F 69% 29.90 in 10.0 mi WSW 9.2 mph - N/A   Clear
6:56 AM 32.0 °F 24.8 °F 23.0 °F 69% 29.94 in 10.0 mi West 8.1 mph - N/A   Clear
7:56 AM 39.0 °F 32.8 °F 26.1 °F 60% 29.95 in 10.0 mi West 9.2 mph - N/A   Clear
8:56 AM 44.1 °F 39.0 °F 25.0 °F 47% 29.95 in 10.0 mi West 9.2 mph - N/A   Clear
9:56 AM 48.9 °F - 21.0 °F 33% 29.95 in 10.0 mi West 10.4 mph - N/A   Scattered Clouds
10:56 AM 52.0 °F - 15.1 °F 23% 29.94 in 10.0 mi NW 8.1 mph - N/A   Partly Cloudy
11:56 AM 53.1 °F - 16.0 °F 23% 29.92 in 10.0 mi West 6.9 mph - N/A   Overcast
12:56 PM 55.9 °F - 23.0 °F 28% 29.89 in 10.0 mi WSW 19.6 mph 23.0 mph N/A   Clear
1:56 PM 55.0 °F - 25.0 °F 31% 29.87 in 10.0 mi West 15.0 mph 19.6 mph N/A   Clear
2:56 PM 57.0 °F - 24.1 °F 28% 29.83 in 10.0 mi West 15.0 mph 28.8 mph N/A   Overcast
3:56 PM 57.0 °F - 23.0 °F 27% 29.83 in 10.0 mi West 17.3 mph - N/A   Overcast
4:56 PM 55.9 °F - 25.0 °F 30% 29.82 in 10.0 mi West 13.8 mph 24.2 mph N/A   Overcast
5:56 PM 55.0 °F - 23.0 °F 29% 29.84 in 10.0 mi NW 20.7 mph - N/A   Overcast
6:56 PM 53.1 °F - 21.9 °F 30% 29.86 in 10.0 mi NW 15.0 mph - N/A   Mostly Cloudy
7:56 PM 48.0 °F - 24.1 °F 39% 29.86 in 10.0 mi NW 4.6 mph - N/A   Overcast
8:56 PM 43.0 °F 41.3 °F 25.0 °F 49% 29.89 in 10.0 mi West 3.5 mph - N/A   Mostly Cloudy
9:56 PM 42.1 °F - 25.0 °F 51% 29.88 in 10.0 mi Calm Calm - N/A   Overcast
10:56 PM 39.9 °F 37.8 °F 26.1 °F 58% 29.88 in 10.0 mi SW 3.5 mph - N/A   Overcast
11:56 PM 43.0 °F 39.5 °F 24.1 °F 47% 29.88 in 10.0 mi West 5.8 mph - N/A   Overcast